Location: Cormont
(50.5693°N, 1.7416°E)
Time: 10:47:43
(UTC+00:00)

STARLINK-40 - Pass Details

Date: 21 October 2019
Orbit: 548 x 551 km, 53.0° (Epoch: 20 November)

Event Time Altitude Azimuth Distance (km) Brightness Sun altitude
Rises 18:11:58 0° 275° (W) 2,719 9.1 -13.7°
Reaches altitude 10° 18:14:14 10° 279° (W) 1,826 7.7 -14.1°
Maximum altitude 18:18:20 60° 360° (N) 632 3.9 -14.8°
Enters shadow 18:20:30 26° 72° (ENE) 1,101 4.6 -15.1°
